Snowfall_Accumulation
0.5 0.5 0.6 0.4 0.4 0.4 0.5 0.6 0.9 1.0 1.4 1.2 1.2 1.4 1.1 0.8 0.9 0.8 1.0 1.2 1.1 1.0 1.1 0.9 0.8 0.9 1.0 0.9 0.6 0.5 0.7 1.0 1.6 0.7 0.4 0.2 0.1 0.3 0.3 0.1 0.1 0.1 0.1
0.8 0.7 0.9 0.6 0.5 0.5 0.6 0.6 0.6 0.8 1.0 1.4 1.3 1.4 1.4 1.2 1.1 1.3 1.0 1.0 1.2 1.1 1.1 1.0 1.0 1.1 1.2 1.3 1.0 1.1 0.9 1.0 1.6 1.6 0.8 0.7 0.5 0.4 0.5 0.4 0.2 0.2 0.2
0.9 1.0 1.1 1.0 0.8 0.7 0.6 0.6 0.5 0.6 0.8 1.0 1.1 1.2 1.3 1.6 1.4 1.3 1.3 1.1 1.3 1.1 1.2 1.3 1.5 1.4 1.7 1.4 1.1 1.3 1.2 1.0 1.5 2.0 1.6 0.9 0.8 0.5 0.7 0.7 0.2 0.2 0.1
1.3 1.2 1.3 1.1 1.0 0.9 0.8 0.8 0.7 0.6 0.8 1.2 1.2 1.3 1.3 1.5 1.7 1.8 1.8 1.5 1.4 1.3 1.5 1.5 1.7 1.8 2.2 1.9 1.9 2.0 2.4 2.5 2.5 2.5 2.5 2.2 1.9 1.3 1.0 1.2 0.9 0.6 0.4
1.1 1.1 1.2 1.0 0.9 0.8 1.0 0.9 0.7 0.8 0.7 0.8 1.4 1.5 1.6 1.7 1.7 2.1 2.3 2.4 1.9 1.8 1.4 1.5 1.7 2.0 2.1 2.5 2.5 2.9 3.1 3.1 3.4 3.8 3.7 3.2 2.5 2.2 1.7 1.5 1.6 1.1 0.9
1.1 1.1 1.0 0.9 0.9 1.0 1.0 1.1 1.0 0.9 0.9 1.1 1.4 1.7 1.7 1.7 1.7 2.1 2.8 3.1 2.5 2.1 2.0 2.2 2.0 2.2 2.2 1.9 1.9 2.0 2.9 4.8 5.6 4.9 4.4 3.8 2.6 2.5 2.1 2.2 2.3 2.5 2.3
1.3 1.2 1.2 1.1 1.3 1.4 1.4 1.6 1.6 1.5 1.5 1.5 1.4 1.6 1.8 1.5 1.6 2.2 2.8 3.3 3.1 2.8 3.0 3.0 2.7 2.3 2.1 1.6 1.8 1.4 2.1 2.4 3.1 3.8 4.2 3.0 2.5 2.5 3.1 3.7 3.4 3.5 3.1
1.6 1.5 1.5 1.4 1.5 1.4 1.6 1.6 1.7 1.7 2.1 1.9 1.7 1.7 1.7 1.3 1.8 2.3 2.9 3.6 3.6 3.5 3.1 2.9 2.8 2.3 2.1 1.9 2.3 2.5 1.7 1.5 1.5 1.8 2.4 2.1 2.0 2.3 3.1 4.7 4.3 4.0 2.6
2.5 2.5 2.2 2.1 1.8 1.9 1.9 2.6 3.2 3.7 3.8 3.9 3.8 3.6 3.7 2.3 2.8 3.3 4.2 4.2 3.6 3.3 2.4 2.1 1.8 1.7 1.7 2.5 3.4 3.1 1.8 1.2 1.1 1.4 1.6 2.0 2.2 2.3 2.9 4.2 5.4 6.5 6.0
3.2 2.9 2.8 2.8 3.0 3.5 3.6 3.9 4.5 4.7 4.8 5.0 5.1 4.8 4.6 4.0 2.9 2.7 3.1 3.5 3.5 2.6 2.1 1.9 1.6 1.9 2.4 3.4 4.1 4.1 3.5 1.8 1.7 1.2 1.0 0.9 1.1 1.2 1.6 2.9 4.7 7.7 7.9
3.3 3.2 2.8 2.8 3.2 3.5 3.6 3.4 3.7 3.9 4.0 3.6 3.8 3.4 2.8 2.2 1.5 1.8 2.3 3.3 4.0 3.6 3.1 2.2 1.7 1.9 2.7 3.5 4.1 4.2 4.2 3.8 2.9 2.5 2.0 1.7 1.2 1.1 1.2 1.6 2.5 5.7 9.3
2.8 2.9 2.8 2.6 2.9 2.8 2.9 3.2 3.2 3.3 3.4 3.1 2.8 2.4 2.0 1.5 1.3 1.6 2.2 3.7 3.9 4.7 4.0 2.3 2.2 3.0 3.3 3.0 3.3 3.3 3.3 3.4 3.7 3.7 3.5 2.9 2.4 2.2 1.8 1.6 2.0 2.5 3.6
2.8 2.7 2.7 2.5 2.7 2.7 2.8 3.1 3.3 3.3 3.1 3.0 2.8 2.7 2.6 2.0 1.4 1.5 2.3 2.8 3.4 3.7 3.1 3.0 3.1 3.5 3.7 3.3 3.3 3.2 3.0 3.2 3.9 4.2 4.0 3.0 2.3 2.2 2.1 2.4 2.7 2.5 2.2
3.0 2.9 2.8 2.8 3.0 2.9 3.2 3.4 3.7 4.0 4.4 4.2 4.0 3.7 3.1 2.7 2.4 2.4 2.8 3.1 3.3 3.6 3.3 2.9 3.2 3.2 3.2 3.1 3.3 3.7 3.6 4.1 4.1 4.4 3.6 2.9 2.5 2.9 3.4 3.6 4.3 4.9 5.8
2.6 2.8 2.9 3.0 3.2 3.4 3.5 3.6 4.3 4.4 5.1 6.6 6.2 5.3 5.5 5.1 3.7 4.2 5.2 5.3 5.4 5.6 5.6 5.1 4.4 4.0 4.2 4.1 3.9 3.8 4.1 4.1 4.7 4.4 4.3 4.7 4.3 4.3 4.2 4.3 5.5 6.8 8.1
2.9 3.0 3.1 3.4 3.2 3.3 3.5 4.0 3.4 3.9 4.0 4.3 4.7 5.6 5.7 5.2 4.8 4.8 5.0 5.0 4.9 5.6 6.4 6.7 5.6 4.9 4.6 4.9 5.0 5.1 4.7 5.0 5.3 5.7 6.1 6.0 6.5 6.7 6.3 5.6 6.4 8.3 8.6
3.5 3.5 3.6 3.7 3.7 4.0 3.9 4.0 4.7 4.2 3.6 3.6 4.0 4.1 4.8 4.9 5.2 5.2 5.0 5.0 4.8 5.0 6.6 5.8 5.1 4.8 5.0 5.4 5.6 6.0 6.1 5.8 6.2 7.2 7.7 7.4 8.2 8.5 8.5 8.4 8.1 8.8 8.7
3.2 3.4 3.7 3.9 4.1 4.3 4.3 4.5 4.5 4.9 5.2 5.0 4.3 3.8 4.2 4.5 4.9 5.3 5.2 5.6 5.9 5.1 5.3 5.4 5.3 5.1 5.5 5.7 6.2 7.0 6.6 6.4 7.1 8.0 8.4 8.3 9.2 10.1 10.7 9.9 9.3 9.7 10.0
3.1 3.6 3.9 4.1 4.1 4.3 4.5 4.8 5.1 5.0 5.1 5.2 5.1 5.4 5.1 5.1 4.7 5.2 5.5 6.5 7.0 6.7 5.8 5.6 5.9 6.0 6.3 6.8 7.0 7.6 8.0 8.3 8.3 8.9 9.2 9.1 10.1 11.4 11.4 9.9 10.2 10.3 11.2
3.3 3.7 4.1 4.3 4.3 4.5 4.9 5.5 5.6 5.6 5.5 5.3 5.5 6.2 6.7 6.9 7.1 6.8 6.4 6.6 6.8 6.7 5.9 6.0 6.3 6.6 7.1 7.7 7.8 8.5 8.8 8.4 9.1 9.5 9.5 9.5 9.9 11.3 11.6 10.8 11.0 11.8 11.0
3.8 3.9 4.1 4.3 4.5 4.9 5.4 5.7 5.8 6.0 6.0 5.9 5.9 6.1 7.5 8.7 8.1 7.3 7.3 7.1 6.8 7.1 7.2 7.2 7.2 7.2 7.6 7.9 8.5 8.8 9.0 8.6 8.6 9.6 9.7 10.0 10.7 11.6 10.8 11.3 11.2 11.4 12.3
4.4 4.7 4.6 5.0 5.1 5.5 5.9 5.9 6.0 6.1 5.8 5.6 5.7 5.7 6.2 6.7 6.9 7.0 7.0 6.9 6.7 7.1 7.5 8.0 8.0 7.2 7.7 9.0 10.1 10.6 9.6 8.7 8.5 9.4 10.4 10.5 10.7 11.3 11.5 12.0 12.3 12.9 13.5
5.1 5.1 5.1 5.2 5.5 5.8 5.8 5.6 5.6 5.6 5.8 5.6 5.6 5.8 6.0 6.3 6.2 6.7 6.7 6.6 6.4 6.5 6.7 7.1 7.6 7.2 7.0 7.9 9.1 11.3 11.7 10.1 8.9 10.4 12.8 12.9 12.4 12.7 13.4 13.6 12.9 12.9 12.0
5.6 5.7 5.9 5.9 5.8 5.8 6.0 5.6 5.6 5.7 5.7 5.8 5.8 5.6 5.7 5.9 5.9 6.1 6.3 6.4 6.8 6.6 6.5 6.6 7.1 6.9 6.8 8.0 7.9 8.5 9.4 10.7 12.9 14.5 16.1 18.4 17.3 15.2 14.6 13.9 12.3 11.8 11.8
5.6 5.9 6.0 6.3 6.4 6.5 6.3 6.2 5.8 5.7 5.9 6.0 5.8 5.7 5.7 5.5 5.7 5.7 5.8 6.1 6.2 6.3 6.0 6.1 6.6 6.8 6.9 7.4 7.8 7.9 8.2 10.2 13.9 18.5 20.8 20.0 17.4 14.8 14.6 13.8 12.6 12.2 12.2
5.6 5.9 6.4 6.5 6.6 6.6 6.6 6.7 6.4 6.3 6.6 6.6 6.8 6.5 6.5 6.4 6.2 6.0 6.2 6.4 6.7 6.5 6.3 6.0 6.1 6.6 7.0 7.3 7.2 7.4 8.2 9.8 10.9 13.4 18.5 20.3 17.8 14.9 14.8 15.7 14.1 13.7 13.5